Year,Month,Day,Hour,Minute,Value (Times are PST for temperature in C)
2008,07,12,00,00,15.00
2008,07,12,00,01,15.00
2008,07,12,00,02,15.00
2008,07,12,00,03,15.00
2008,07,12,00,04,15.00
2008,07,12,00,05,15.00
2008,07,12,00,06,15.00
2008,07,12,00,07,15.00
2008,07,12,00,08,15.00
2008,07,12,00,09,15.00
2008,07,12,00,10,15.00
2008,07,12,00,11,15.00
2008,07,12,00,12,15.00
2008,07,12,00,13,15.00
2008,07,12,00,14,15.00
2008,07,12,00,15,15.00
2008,07,12,00,16,15.00
2008,07,12,00,17,15.00
2008,07,12,00,18,15.00
2008,07,12,00,19,14.90
2008,07,12,00,20,14.90
2008,07,12,00,21,14.80
2008,07,12,00,22,14.80
2008,07,12,00,23,14.80
2008,07,12,00,24,14.80
2008,07,12,00,25,14.80
2008,07,12,00,26,14.80
2008,07,12,00,27,14.80
2008,07,12,00,28,14.70
2008,07,12,00,29,14.70
2008,07,12,00,30,14.70
2008,07,12,00,31,14.70
2008,07,12,00,32,14.70
2008,07,12,00,33,14.70
2008,07,12,00,34,14.70
2008,07,12,00,35,14.70
2008,07,12,00,36,14.60
2008,07,12,00,37,14.60
2008,07,12,00,38,14.60
2008,07,12,00,39,14.60
2008,07,12,00,40,14.50
2008,07,12,00,41,14.50
2008,07,12,00,42,14.40
2008,07,12,00,43,14.40
2008,07,12,00,44,14.40
2008,07,12,00,45,14.40
2008,07,12,00,46,14.30
2008,07,12,00,47,14.30
2008,07,12,00,48,14.30
2008,07,12,00,49,14.30
2008,07,12,00,50,14.20
2008,07,12,00,51,14.20
2008,07,12,00,52,14.20
2008,07,12,00,53,14.20
2008,07,12,00,54,14.20
2008,07,12,00,55,14.20
2008,07,12,00,56,14.20
2008,07,12,00,57,14.10
2008,07,12,00,58,14.10
2008,07,12,00,59,14.10
2008,07,12,01,00,14.10
2008,07,12,01,01,14.10
2008,07,12,01,02,14.10
2008,07,12,01,03,14.10
2008,07,12,01,04,14.10
2008,07,12,01,05,14.00
2008,07,12,01,06,14.00
2008,07,12,01,07,14.00
2008,07,12,01,08,13.90
2008,07,12,01,09,13.90
2008,07,12,01,10,13.90
2008,07,12,01,11,13.90
2008,07,12,01,12,13.90
2008,07,12,01,13,13.80
2008,07,12,01,14,13.80
2008,07,12,01,15,13.80
2008,07,12,01,16,13.80
2008,07,12,01,17,13.80
2008,07,12,01,18,13.80
2008,07,12,01,19,13.70
2008,07,12,01,20,13.70
2008,07,12,01,21,13.70
2008,07,12,01,22,13.70
2008,07,12,01,23,13.70
2008,07,12,01,24,13.70
2008,07,12,01,25,13.70
2008,07,12,01,26,13.70
2008,07,12,01,27,13.70
2008,07,12,01,28,13.70
2008,07,12,01,29,13.70
2008,07,12,01,30,13.70
2008,07,12,01,31,13.70
2008,07,12,01,32,13.60
2008,07,12,01,33,13.60
2008,07,12,01,34,13.60
2008,07,12,01,35,13.60
2008,07,12,01,36,13.60
2008,07,12,01,37,13.60
2008,07,12,01,38,13.60
2008,07,12,01,39,13.60
2008,07,12,01,40,13.60
2008,07,12,01,41,13.60
2008,07,12,01,42,13.60
2008,07,12,01,43,13.60
2008,07,12,01,44,13.60
2008,07,12,01,45,13.60
2008,07,12,01,46,13.60
2008,07,12,01,47,13.50
2008,07,12,01,48,13.50
2008,07,12,01,49,13.50
2008,07,12,01,50,13.50
2008,07,12,01,51,13.50
2008,07,12,01,52,13.50
2008,07,12,01,53,13.50
2008,07,12,01,54,13.40
2008,07,12,01,55,13.40
2008,07,12,01,56,13.40
2008,07,12,01,57,13.40
2008,07,12,01,58,13.40
2008,07,12,01,59,13.40
2008,07,12,02,00,13.30
2008,07,12,02,01,13.30
2008,07,12,02,02,13.30
2008,07,12,02,03,13.30
2008,07,12,02,04,13.30
2008,07,12,02,05,13.30
2008,07,12,02,06,13.30
2008,07,12,02,07,13.30
2008,07,12,02,08,13.30
2008,07,12,02,09,13.30
2008,07,12,02,10,13.30
2008,07,12,02,11,13.30
2008,07,12,02,12,13.20
2008,07,12,02,13,13.20
2008,07,12,02,14,13.20
2008,07,12,02,15,13.20
2008,07,12,02,16,13.20
2008,07,12,02,17,13.20
2008,07,12,02,18,13.20
2008,07,12,02,19,13.20
2008,07,12,02,20,13.20
2008,07,12,02,21,13.20
2008,07,12,02,22,13.20
2008,07,12,02,23,13.20
2008,07,12,02,24,13.20
2008,07,12,02,25,13.20
2008,07,12,02,26,13.20
2008,07,12,02,27,13.20
2008,07,12,02,28,13.20
2008,07,12,02,29,13.20
2008,07,12,02,30,13.20
2008,07,12,02,31,13.20
2008,07,12,02,32,13.20
2008,07,12,02,33,13.10
2008,07,12,02,34,13.10
2008,07,12,02,35,13.10
2008,07,12,02,36,13.10
2008,07,12,02,37,13.10
2008,07,12,02,38,13.10
2008,07,12,02,39,13.10
2008,07,12,02,40,13.10
2008,07,12,02,41,13.10
2008,07,12,02,42,13.10
2008,07,12,02,43,13.10
2008,07,12,02,44,13.10
2008,07,12,02,45,13.10
2008,07,12,02,46,13.10
2008,07,12,02,47,13.10
2008,07,12,02,48,13.10
2008,07,12,02,49,13.10
2008,07,12,02,50,13.00
2008,07,12,02,51,13.10
2008,07,12,02,52,13.00
2008,07,12,02,53,13.00
2008,07,12,02,54,13.00
2008,07,12,02,55,13.00
2008,07,12,02,56,12.90
2008,07,12,02,57,12.90
2008,07,12,02,58,12.90
2008,07,12,02,59,12.90
2008,07,12,03,00,12.90
2008,07,12,03,01,12.90
2008,07,12,03,02,12.90
2008,07,12,03,03,12.90
2008,07,12,03,04,12.90
2008,07,12,03,05,12.90
2008,07,12,03,06,12.90
2008,07,12,03,07,12.90
2008,07,12,03,08,12.80
2008,07,12,03,09,12.80
2008,07,12,03,10,12.80
2008,07,12,03,11,12.80
2008,07,12,03,12,12.70
2008,07,12,03,13,12.70
2008,07,12,03,14,12.70
2008,07,12,03,15,12.70
2008,07,12,03,16,12.70
2008,07,12,03,17,12.70
2008,07,12,03,18,12.70
2008,07,12,03,19,12.70
2008,07,12,03,20,12.70
2008,07,12,03,21,12.70
2008,07,12,03,22,12.70
2008,07,12,03,23,12.70
2008,07,12,03,24,12.70
2008,07,12,03,25,12.70
2008,07,12,03,26,12.70
2008,07,12,03,27,12.70
2008,07,12,03,28,12.70
2008,07,12,03,29,12.70
2008,07,12,03,30,12.60
2008,07,12,03,31,12.60
2008,07,12,03,32,12.60
2008,07,12,03,33,12.60
2008,07,12,03,34,12.60
2008,07,12,03,35,12.60
2008,07,12,03,36,12.60
2008,07,12,03,37,12.60
2008,07,12,03,38,12.60
2008,07,12,03,39,12.60
2008,07,12,03,40,12.60
2008,07,12,03,41,12.60
2008,07,12,03,42,12.60
2008,07,12,03,43,12.70
2008,07,12,03,44,12.70
2008,07,12,03,45,12.70
2008,07,12,03,46,12.70
2008,07,12,03,47,12.70
2008,07,12,03,48,12.70
2008,07,12,03,49,12.60
2008,07,12,03,50,12.60
2008,07,12,03,51,12.60
2008,07,12,03,52,12.60
2008,07,12,03,53,12.60
2008,07,12,03,54,12.60
2008,07,12,03,55,12.60
2008,07,12,03,56,12.60
2008,07,12,03,57,12.50
2008,07,12,03,58,12.50
2008,07,12,03,59,12.50
2008,07,12,04,00,12.50
2008,07,12,04,01,12.50
2008,07,12,04,02,12.50
2008,07,12,04,03,12.50
2008,07,12,04,04,12.40
2008,07,12,04,05,12.40
2008,07,12,04,06,12.40
2008,07,12,04,07,12.40
2008,07,12,04,08,12.30
2008,07,12,04,09,12.30
2008,07,12,04,10,12.30
2008,07,12,04,11,12.30
2008,07,12,04,12,12.30
2008,07,12,04,13,12.20
2008,07,12,04,14,12.20
2008,07,12,04,15,12.20
2008,07,12,04,16,12.20
2008,07,12,04,17,12.20
2008,07,12,04,18,12.10
2008,07,12,04,19,12.10
2008,07,12,04,20,12.10
2008,07,12,04,21,12.10
2008,07,12,04,22,12.10
2008,07,12,04,23,12.10
2008,07,12,04,24,12.00
2008,07,12,04,25,12.00
2008,07,12,04,26,12.00
2008,07,12,04,27,12.00
2008,07,12,04,28,12.00
2008,07,12,04,29,12.00
2008,07,12,04,30,12.00
2008,07,12,04,31,11.90
2008,07,12,04,32,11.90
2008,07,12,04,33,11.90
2008,07,12,04,34,11.90
2008,07,12,04,35,11.90
2008,07,12,04,36,11.90
2008,07,12,04,37,11.90
2008,07,12,04,38,11.90
2008,07,12,04,39,11.90
2008,07,12,04,40,11.90
2008,07,12,04,41,11.90
2008,07,12,04,42,11.90
2008,07,12,04,43,11.80
2008,07,12,04,44,11.80
2008,07,12,04,45,11.80
2008,07,12,04,46,11.80
2008,07,12,04,47,11.80
2008,07,12,04,48,11.80
2008,07,12,04,49,11.80
2008,07,12,04,50,11.80
2008,07,12,04,51,11.80
2008,07,12,04,52,11.80
2008,07,12,04,53,11.80
2008,07,12,04,54,11.80
2008,07,12,04,55,11.80
2008,07,12,04,56,11.80
2008,07,12,04,57,11.70
2008,07,12,04,58,11.70
2008,07,12,04,59,11.70
2008,07,12,05,00,11.70
2008,07,12,05,01,11.70
2008,07,12,05,02,11.70
2008,07,12,05,03,11.70
2008,07,12,05,04,11.70
2008,07,12,05,05,11.70
2008,07,12,05,06,11.70
2008,07,12,05,07,11.70
2008,07,12,05,08,11.70
2008,07,12,05,09,11.70
2008,07,12,05,10,11.70
2008,07,12,05,11,11.70
2008,07,12,05,12,11.60
2008,07,12,05,13,11.60
2008,07,12,05,14,11.60
2008,07,12,05,15,11.60
2008,07,12,05,16,11.60
2008,07,12,05,17,11.60
2008,07,12,05,18,11.60
2008,07,12,05,19,11.60
2008,07,12,05,20,11.60
2008,07,12,05,21,11.60
2008,07,12,05,22,11.50
2008,07,12,05,23,11.50
2008,07,12,05,24,11.50
2008,07,12,05,25,11.50
2008,07,12,05,26,11.40
2008,07,12,05,27,11.40
2008,07,12,05,28,11.40
2008,07,12,05,29,11.40
2008,07,12,05,30,11.40
2008,07,12,05,31,11.40
2008,07,12,05,32,11.40
2008,07,12,05,33,11.40
2008,07,12,05,34,11.40
2008,07,12,05,35,11.40
2008,07,12,05,36,11.40
2008,07,12,05,37,11.30
2008,07,12,05,38,11.30
2008,07,12,05,39,11.30
2008,07,12,05,40,11.30
2008,07,12,05,41,11.30
2008,07,12,05,42,11.30
2008,07,12,05,43,11.30
2008,07,12,05,44,11.30
2008,07,12,05,45,11.30
2008,07,12,05,46,11.30
2008,07,12,05,47,11.30
2008,07,12,05,48,11.30
2008,07,12,05,49,11.40
2008,07,12,05,50,11.40
2008,07,12,05,51,11.40
2008,07,12,05,52,11.40
2008,07,12,05,53,11.40
2008,07,12,05,54,11.40
2008,07,12,05,55,11.40
2008,07,12,05,56,11.40
2008,07,12,05,57,11.40
2008,07,12,05,58,11.40
2008,07,12,05,59,11.40
2008,07,12,06,00,11.40
2008,07,12,06,01,11.40
2008,07,12,06,02,11.40
2008,07,12,06,03,11.40
2008,07,12,06,04,11.40
2008,07,12,06,05,11.30
2008,07,12,06,06,11.30
2008,07,12,06,07,11.30
2008,07,12,06,08,11.30
2008,07,12,06,09,11.30
2008,07,12,06,10,11.30
2008,07,12,06,11,11.40
2008,07,12,06,12,11.40
2008,07,12,06,13,11.40
2008,07,12,06,14,11.40
2008,07,12,06,15,11.40
2008,07,12,06,16,11.40
2008,07,12,06,17,11.40
2008,07,12,06,18,11.40
2008,07,12,06,19,11.40
2008,07,12,06,20,11.40
2008,07,12,06,21,11.50
2008,07,12,06,22,11.50
2008,07,12,06,23,11.60
2008,07,12,06,24,11.60
2008,07,12,06,25,11.70
2008,07,12,06,26,11.80
2008,07,12,06,27,11.80
2008,07,12,06,28,11.90
2008,07,12,06,29,12.00
2008,07,12,06,30,12.10
2008,07,12,06,31,12.10
2008,07,12,06,32,12.20
2008,07,12,06,33,12.20
2008,07,12,06,34,12.20
2008,07,12,06,35,12.30
2008,07,12,06,36,12.30
2008,07,12,06,37,12.40
2008,07,12,06,38,12.40
2008,07,12,06,39,12.50
2008,07,12,06,40,12.60
2008,07,12,06,41,12.70
2008,07,12,06,42,12.80
2008,07,12,06,43,12.80
2008,07,12,06,44,12.80
2008,07,12,06,45,12.90
2008,07,12,06,46,12.90
2008,07,12,06,47,13.00
2008,07,12,06,48,13.00
2008,07,12,06,49,13.10
2008,07,12,06,50,13.10
2008,07,12,06,51,13.20
2008,07,12,06,52,13.20
2008,07,12,06,53,13.20
2008,07,12,06,54,13.30
2008,07,12,06,55,13.30
2008,07,12,06,56,13.30
2008,07,12,06,57,13.30
2008,07,12,06,58,13.40
2008,07,12,06,59,13.40
2008,07,12,07,00,13.40
2008,07,12,07,01,13.50
2008,07,12,07,02,13.50
2008,07,12,07,03,13.60
2008,07,12,07,04,13.70
2008,07,12,07,05,13.70
2008,07,12,07,06,13.80
2008,07,12,07,07,13.80
2008,07,12,07,08,13.90
2008,07,12,07,09,13.90
2008,07,12,07,10,13.90
2008,07,12,07,11,14.00
2008,07,12,07,12,14.00
2008,07,12,07,13,14.10
2008,07,12,07,14,14.10
2008,07,12,07,15,14.10
2008,07,12,07,16,14.20
2008,07,12,07,17,14.20
2008,07,12,07,18,14.20
2008,07,12,07,19,14.30
2008,07,12,07,20,14.30
2008,07,12,07,21,14.40
2008,07,12,07,22,14.40
2008,07,12,07,23,14.50
2008,07,12,07,24,14.50
2008,07,12,07,25,14.60
2008,07,12,07,26,14.70
2008,07,12,07,27,14.80
2008,07,12,07,28,14.80
2008,07,12,07,29,15.00
2008,07,12,07,30,15.00
2008,07,12,07,31,15.00
2008,07,12,07,32,15.00
2008,07,12,07,33,15.10
2008,07,12,07,34,15.20
2008,07,12,07,35,15.20
2008,07,12,07,36,15.30
2008,07,12,07,37,15.50
2008,07,12,07,38,15.60
2008,07,12,07,39,15.80
2008,07,12,07,40,15.90
2008,07,12,07,41,16.00
2008,07,12,07,42,16.10
2008,07,12,07,43,16.20
2008,07,12,07,44,16.30
2008,07,12,07,45,16.30
2008,07,12,07,46,16.30
2008,07,12,07,47,16.30
2008,07,12,07,48,16.40
2008,07,12,07,49,16.40
2008,07,12,07,50,16.40
2008,07,12,07,51,16.50
2008,07,12,07,52,16.60
2008,07,12,07,53,16.60
2008,07,12,07,54,16.70
2008,07,12,07,55,16.80
2008,07,12,07,56,16.80
2008,07,12,07,57,16.90
2008,07,12,07,58,16.90
2008,07,12,07,59,16.90
2008,07,12,08,00,17.00
2008,07,12,08,01,17.00
2008,07,12,08,02,17.00
2008,07,12,08,03,17.00
2008,07,12,08,04,17.00
2008,07,12,08,05,17.10
2008,07,12,08,06,17.10
2008,07,12,08,07,17.20
2008,07,12,08,08,17.20
2008,07,12,08,09,17.20
2008,07,12,08,10,17.30
2008,07,12,08,11,17.30
2008,07,12,08,12,17.40
2008,07,12,08,13,17.50
2008,07,12,08,14,17.70
2008,07,12,08,15,17.80
2008,07,12,08,16,18.00
2008,07,12,08,17,18.20
2008,07,12,08,18,18.30
2008,07,12,08,19,18.50
2008,07,12,08,20,18.70
2008,07,12,08,21,18.80
2008,07,12,08,22,18.90
2008,07,12,08,23,19.00
2008,07,12,08,24,19.10
2008,07,12,08,25,19.20
2008,07,12,08,26,19.30
2008,07,12,08,27,19.30
2008,07,12,08,28,19.30
2008,07,12,08,29,19.40
2008,07,12,08,30,19.40
2008,07,12,08,31,19.40
2008,07,12,08,32,19.40
2008,07,12,08,33,19.40
2008,07,12,08,34,19.40
2008,07,12,08,35,19.40
2008,07,12,08,36,19.40
2008,07,12,08,37,19.40
2008,07,12,08,38,19.50
2008,07,12,08,39,19.50
2008,07,12,08,40,19.60
2008,07,12,08,41,19.60
2008,07,12,08,42,19.60
2008,07,12,08,43,19.70
2008,07,12,08,44,19.80
2008,07,12,08,45,19.80
2008,07,12,08,46,19.90
2008,07,12,08,47,20.00
2008,07,12,08,48,20.00
2008,07,12,08,49,20.10
2008,07,12,08,50,20.20
2008,07,12,08,51,20.10
2008,07,12,08,52,20.10
2008,07,12,08,53,20.00
2008,07,12,08,54,19.90
2008,07,12,08,55,19.90
2008,07,12,08,56,19.80
2008,07,12,08,57,19.80
2008,07,12,08,58,19.70
2008,07,12,08,59,19.60
2008,07,12,09,00,19.50
2008,07,12,09,01,19.40
2008,07,12,09,02,19.30
2008,07,12,09,03,19.30
2008,07,12,09,04,19.10
2008,07,12,09,05,19.00
2008,07,12,09,06,18.90
2008,07,12,09,07,18.80
2008,07,12,09,08,18.70
2008,07,12,09,09,18.60
2008,07,12,09,10,18.60
2008,07,12,09,11,18.50
2008,07,12,09,12,18.40
2008,07,12,09,13,18.40
2008,07,12,09,14,18.40
2008,07,12,09,15,18.40
2008,07,12,09,16,18.40
2008,07,12,09,17,18.50
2008,07,12,09,18,18.50
2008,07,12,09,19,18.50
2008,07,12,09,20,18.50
2008,07,12,09,21,18.50
2008,07,12,09,22,18.60
2008,07,12,09,23,18.60
2008,07,12,09,24,18.60
2008,07,12,09,25,18.60
2008,07,12,09,26,18.70
2008,07,12,09,27,18.70
2008,07,12,09,28,18.60
2008,07,12,09,29,18.50
2008,07,12,09,30,18.40
2008,07,12,09,31,18.40
2008,07,12,09,32,18.30
2008,07,12,09,33,18.30
2008,07,12,09,34,18.40
2008,07,12,09,35,18.40
2008,07,12,09,36,18.50
2008,07,12,09,37,18.50
2008,07,12,09,38,18.50
2008,07,12,09,39,18.60
2008,07,12,09,40,18.60
2008,07,12,09,41,18.60
2008,07,12,09,42,18.60
2008,07,12,09,43,18.70
2008,07,12,09,44,18.70
2008,07,12,09,45,18.70
2008,07,12,09,46,18.70
2008,07,12,09,47,18.70
2008,07,12,09,48,18.70
2008,07,12,09,49,18.80
2008,07,12,09,50,18.90
2008,07,12,09,51,18.90
2008,07,12,09,52,19.00
2008,07,12,09,53,19.10
2008,07,12,09,54,19.20
2008,07,12,09,55,19.30
2008,07,12,09,56,19.40
2008,07,12,09,57,19.50
2008,07,12,09,58,19.60
2008,07,12,09,59,19.60
2008,07,12,10,00,19.70
2008,07,12,10,01,19.90
2008,07,12,10,02,20.00
2008,07,12,10,03,20.10
2008,07,12,10,04,20.10
2008,07,12,10,05,20.20
2008,07,12,10,06,20.20
2008,07,12,10,07,20.20
2008,07,12,10,08,20.30
2008,07,12,10,09,20.30
2008,07,12,10,10,20.30
2008,07,12,10,11,20.30
2008,07,12,10,12,20.30
2008,07,12,10,13,20.30
2008,07,12,10,14,20.40
2008,07,12,10,15,20.50
2008,07,12,10,16,20.50
2008,07,12,10,17,20.60
2008,07,12,10,18,20.70
2008,07,12,10,19,20.70
2008,07,12,10,20,20.70
2008,07,12,10,21,20.80
2008,07,12,10,22,20.80
2008,07,12,10,23,20.80
2008,07,12,10,24,20.80
2008,07,12,10,25,20.80
2008,07,12,10,26,20.80
2008,07,12,10,27,20.80
2008,07,12,10,28,20.80
2008,07,12,10,29,20.70
2008,07,12,10,30,20.70
2008,07,12,10,31,20.60
2008,07,12,10,32,20.60
2008,07,12,10,33,20.60
2008,07,12,10,34,20.60
2008,07,12,10,35,20.40
2008,07,12,10,36,20.30
2008,07,12,10,37,20.30
2008,07,12,10,38,20.20
2008,07,12,10,39,20.20
2008,07,12,10,40,20.20
2008,07,12,10,41,20.20
2008,07,12,10,42,20.20
2008,07,12,10,43,20.20
2008,07,12,10,44,20.30
2008,07,12,10,45,20.40
2008,07,12,10,46,20.50
2008,07,12,10,47,20.60
2008,07,12,10,48,20.60
2008,07,12,10,49,20.70
2008,07,12,10,50,20.60
2008,07,12,10,51,20.60
2008,07,12,10,52,20.60
2008,07,12,10,53,20.60
2008,07,12,10,54,20.50
2008,07,12,10,55,20.40
2008,07,12,10,56,20.30
2008,07,12,10,57,20.30
2008,07,12,10,58,20.40
2008,07,12,10,59,20.50
2008,07,12,11,00,20.50
2008,07,12,11,01,20.60
2008,07,12,11,02,20.60
2008,07,12,11,03,20.80
2008,07,12,11,04,21.00
2008,07,12,11,05,21.20
2008,07,12,11,06,21.40
2008,07,12,11,07,21.50
2008,07,12,11,08,21.60
2008,07,12,11,09,21.60
2008,07,12,11,10,21.60
2008,07,12,11,11,21.40
2008,07,12,11,12,21.20
2008,07,12,11,13,21.00
2008,07,12,11,14,20.80
2008,07,12,11,15,20.70
2008,07,12,11,16,20.60
2008,07,12,11,17,20.40
2008,07,12,11,18,20.40
2008,07,12,11,19,20.30
2008,07,12,11,20,20.30
2008,07,12,11,21,20.30
2008,07,12,11,22,20.40
2008,07,12,11,23,20.50
2008,07,12,11,24,20.70
2008,07,12,11,25,20.80
2008,07,12,11,26,21.00
2008,07,12,11,27,21.10
2008,07,12,11,28,21.20
2008,07,12,11,29,21.30
2008,07,12,11,30,21.40
2008,07,12,11,31,21.50
2008,07,12,11,32,21.50
2008,07,12,11,33,21.50
2008,07,12,11,34,21.50
2008,07,12,11,35,21.60
2008,07,12,11,36,21.70
2008,07,12,11,37,21.70
2008,07,12,11,38,21.70
2008,07,12,11,39,21.70
2008,07,12,11,40,21.70
2008,07,12,11,41,21.80
2008,07,12,11,42,21.80
2008,07,12,11,43,21.90
2008,07,12,11,44,22.00
2008,07,12,11,45,22.10
2008,07,12,11,46,22.10
2008,07,12,11,47,22.20
2008,07,12,11,48,22.20
2008,07,12,11,49,22.30
2008,07,12,11,50,22.40
2008,07,12,11,51,22.50
2008,07,12,11,52,22.50
2008,07,12,11,53,22.40
2008,07,12,11,54,22.20
2008,07,12,11,55,22.00
2008,07,12,11,56,21.80
2008,07,12,11,57,21.80
2008,07,12,11,58,21.80
2008,07,12,11,59,21.70
2008,07,12,12,00,21.70
2008,07,12,12,01,21.80
2008,07,12,12,02,22.00
2008,07,12,12,03,22.10
2008,07,12,12,04,22.10
2008,07,12,12,05,22.00
2008,07,12,12,06,21.80
2008,07,12,12,07,21.60
2008,07,12,12,08,21.50
2008,07,12,12,09,21.30
2008,07,12,12,10,21.30
2008,07,12,12,11,21.30
2008,07,12,12,12,21.40
2008,07,12,12,13,21.40
2008,07,12,12,14,21.40
2008,07,12,12,15,21.50
2008,07,12,12,16,21.70
2008,07,12,12,17,21.80
2008,07,12,12,18,21.80
2008,07,12,12,19,21.80
2008,07,12,12,20,21.90
2008,07,12,12,21,21.90
2008,07,12,12,22,21.90
2008,07,12,12,23,21.90
2008,07,12,12,24,21.80
2008,07,12,12,25,21.80
2008,07,12,12,26,21.80
2008,07,12,12,27,21.80
2008,07,12,12,28,21.80
2008,07,12,12,29,21.80
2008,07,12,12,30,21.80
2008,07,12,12,31,21.80
2008,07,12,12,32,21.80
2008,07,12,12,33,21.90
2008,07,12,12,34,22.00
2008,07,12,12,35,22.10
2008,07,12,12,36,22.20
2008,07,12,12,37,22.20
2008,07,12,12,38,22.20
2008,07,12,12,39,22.30
2008,07,12,12,40,22.30
2008,07,12,12,41,22.30
2008,07,12,12,42,22.30
2008,07,12,12,43,22.40
2008,07,12,12,44,22.50
2008,07,12,12,45,22.50
2008,07,12,12,46,22.50
2008,07,12,12,47,22.40
2008,07,12,12,48,22.50
2008,07,12,12,49,22.50
2008,07,12,12,50,22.50
2008,07,12,12,51,22.50
2008,07,12,12,52,22.50
2008,07,12,12,53,22.50
2008,07,12,12,54,22.50
2008,07,12,12,55,22.50
2008,07,12,12,56,22.60
2008,07,12,12,57,22.60
2008,07,12,12,58,22.50
2008,07,12,12,59,22.50
2008,07,12,13,00,22.50
2008,07,12,13,01,22.50
2008,07,12,13,02,22.50
2008,07,12,13,03,22.60
2008,07,12,13,04,22.60
2008,07,12,13,05,22.60
2008,07,12,13,06,22.70
2008,07,12,13,07,22.90
2008,07,12,13,08,23.10
2008,07,12,13,09,23.20
2008,07,12,13,10,23.40
2008,07,12,13,11,23.30
2008,07,12,13,12,23.30
2008,07,12,13,13,23.30
2008,07,12,13,14,23.30
2008,07,12,13,15,23.30
2008,07,12,13,16,23.20
2008,07,12,13,17,23.30
2008,07,12,13,18,23.40
2008,07,12,13,19,23.50
2008,07,12,13,20,23.60
2008,07,12,13,21,23.80
2008,07,12,13,22,23.80
2008,07,12,13,23,23.90
2008,07,12,13,24,23.90
2008,07,12,13,25,23.90
2008,07,12,13,26,23.90
2008,07,12,13,27,23.90
2008,07,12,13,28,23.80
2008,07,12,13,29,23.70
2008,07,12,13,30,23.70
2008,07,12,13,31,23.70
2008,07,12,13,32,23.80
2008,07,12,13,33,23.80
2008,07,12,13,34,23.80
2008,07,12,13,35,23.70
2008,07,12,13,36,23.60
2008,07,12,13,37,23.70
2008,07,12,13,38,23.70
2008,07,12,13,39,23.70
2008,07,12,13,40,23.70
2008,07,12,13,41,23.60
2008,07,12,13,42,23.60
2008,07,12,13,43,23.50
2008,07,12,13,44,23.40
2008,07,12,13,45,23.30
2008,07,12,13,46,23.20
2008,07,12,13,47,23.20
2008,07,12,13,48,23.30
2008,07,12,13,49,23.30
2008,07,12,13,50,23.30
2008,07,12,13,51,23.30
2008,07,12,13,52,23.50
2008,07,12,13,53,23.60
2008,07,12,13,54,23.60
2008,07,12,13,55,23.60
2008,07,12,13,56,23.60
2008,07,12,13,57,23.60
2008,07,12,13,58,23.70
2008,07,12,13,59,23.70
2008,07,12,14,00,23.80
2008,07,12,14,01,23.80
2008,07,12,14,02,23.80
2008,07,12,14,03,23.80
2008,07,12,14,04,23.70
2008,07,12,14,05,23.70
2008,07,12,14,06,23.70
2008,07,12,14,07,23.70
2008,07,12,14,08,23.70
2008,07,12,14,09,23.70
2008,07,12,14,10,23.80
2008,07,12,14,11,23.90
2008,07,12,14,12,24.00
2008,07,12,14,13,24.00
2008,07,12,14,14,24.10
2008,07,12,14,15,24.20
2008,07,12,14,16,24.20
2008,07,12,14,17,24.20
2008,07,12,14,18,24.10
2008,07,12,14,19,24.00
2008,07,12,14,20,24.00
2008,07,12,14,21,24.00
2008,07,12,14,22,23.90
2008,07,12,14,23,23.80
2008,07,12,14,24,23.80
2008,07,12,14,25,23.80
2008,07,12,14,26,23.80
2008,07,12,14,27,23.90
2008,07,12,14,28,23.80
2008,07,12,14,29,23.80
2008,07,12,14,30,23.70
2008,07,12,14,31,23.70
2008,07,12,14,32,23.60
2008,07,12,14,33,23.40
2008,07,12,14,34,23.20
2008,07,12,14,35,23.10
2008,07,12,14,36,23.10
2008,07,12,14,37,23.10
2008,07,12,14,38,23.10
2008,07,12,14,39,23.10
2008,07,12,14,40,23.20
2008,07,12,14,41,23.20
2008,07,12,14,42,23.20
2008,07,12,14,43,23.20
2008,07,12,14,44,23.20
2008,07,12,14,45,23.30
2008,07,12,14,46,23.10
2008,07,12,14,47,23.10
2008,07,12,14,48,23.10
2008,07,12,14,49,23.10
2008,07,12,14,50,23.10
2008,07,12,14,51,23.10
2008,07,12,14,52,23.10
2008,07,12,14,53,23.10
2008,07,12,14,54,23.10
2008,07,12,14,55,23.20
2008,07,12,14,56,23.10
2008,07,12,14,57,23.20
2008,07,12,14,58,23.10
2008,07,12,14,59,23.10
2008,07,12,15,00,23.00
2008,07,12,15,01,22.90
2008,07,12,15,02,22.90
2008,07,12,15,03,22.80
2008,07,12,15,04,22.80
2008,07,12,15,05,22.80
2008,07,12,15,06,22.90
2008,07,12,15,07,22.90
2008,07,12,15,08,22.90
2008,07,12,15,09,22.90
2008,07,12,15,10,22.80
2008,07,12,15,11,22.60
2008,07,12,15,12,22.60
2008,07,12,15,13,22.60
2008,07,12,15,14,22.50
2008,07,12,15,15,22.60
2008,07,12,15,16,22.60
2008,07,12,15,17,22.60
2008,07,12,15,18,22.70
2008,07,12,15,19,22.80
2008,07,12,15,20,22.90
2008,07,12,15,21,23.00
2008,07,12,15,22,23.10
2008,07,12,15,23,23.30
2008,07,12,15,24,23.40
2008,07,12,15,25,23.50
2008,07,12,15,26,23.50
2008,07,12,15,27,23.40
2008,07,12,15,28,23.30
2008,07,12,15,29,23.30
2008,07,12,15,30,23.30
2008,07,12,15,31,23.40
2008,07,12,15,32,23.30
2008,07,12,15,33,23.30
2008,07,12,15,34,23.30
2008,07,12,15,35,23.30
2008,07,12,15,36,23.40
2008,07,12,15,37,23.40
2008,07,12,15,38,23.50
2008,07,12,15,39,23.40
2008,07,12,15,40,23.30
2008,07,12,15,41,23.30
2008,07,12,15,42,23.40
2008,07,12,15,43,23.30
2008,07,12,15,44,23.20
2008,07,12,15,45,23.10
2008,07,12,15,46,23.10
2008,07,12,15,47,23.20
2008,07,12,15,48,23.20
2008,07,12,15,49,23.30
2008,07,12,15,50,23.40
2008,07,12,15,51,23.50
2008,07,12,15,52,23.60
2008,07,12,15,53,23.70
2008,07,12,15,54,23.70
2008,07,12,15,55,23.70
2008,07,12,15,56,23.70
2008,07,12,15,57,23.60
2008,07,12,15,58,23.50
2008,07,12,15,59,23.50
2008,07,12,16,00,23.40
2008,07,12,16,01,23.40
2008,07,12,16,02,23.40
2008,07,12,16,03,23.40
2008,07,12,16,04,23.40
2008,07,12,16,05,23.50
2008,07,12,16,06,23.60
2008,07,12,16,07,23.40
2008,07,12,16,08,23.30
2008,07,12,16,09,23.30
2008,07,12,16,10,23.30
2008,07,12,16,11,23.30
2008,07,12,16,12,23.30
2008,07,12,16,13,23.30
2008,07,12,16,14,23.30
2008,07,12,16,15,23.30
2008,07,12,16,16,23.40
2008,07,12,16,17,23.40
2008,07,12,16,18,23.40
2008,07,12,16,19,23.40
2008,07,12,16,20,23.40
2008,07,12,16,21,23.30
2008,07,12,16,22,23.30
2008,07,12,16,23,23.40
2008,07,12,16,24,23.50
2008,07,12,16,25,23.60
2008,07,12,16,26,23.80
2008,07,12,16,27,23.90
2008,07,12,16,28,24.00
2008,07,12,16,29,24.10
2008,07,12,16,30,24.20
2008,07,12,16,31,24.20
2008,07,12,16,32,24.10
2008,07,12,16,33,24.10
2008,07,12,16,34,24.20
2008,07,12,16,35,24.10
2008,07,12,16,36,24.00
2008,07,12,16,37,24.00
2008,07,12,16,38,23.90
2008,07,12,16,39,23.80
2008,07,12,16,40,23.80
2008,07,12,16,41,23.80
2008,07,12,16,42,23.80
2008,07,12,16,43,23.90
2008,07,12,16,44,23.90
2008,07,12,16,45,23.70
2008,07,12,16,46,23.70
2008,07,12,16,47,23.80
2008,07,12,16,48,23.90
2008,07,12,16,49,23.90
2008,07,12,16,50,24.00
2008,07,12,16,51,24.10
2008,07,12,16,52,24.20
2008,07,12,16,53,24.30
2008,07,12,16,54,24.40
2008,07,12,16,55,24.50
2008,07,12,16,56,24.60
2008,07,12,16,57,24.50
2008,07,12,16,58,24.30
2008,07,12,16,59,24.00
2008,07,12,17,00,23.80
2008,07,12,17,01,23.60
2008,07,12,17,02,23.50
2008,07,12,17,03,23.40
2008,07,12,17,04,23.40
2008,07,12,17,05,23.40
2008,07,12,17,06,23.30
2008,07,12,17,07,23.40
2008,07,12,17,08,23.60
2008,07,12,17,09,23.70
2008,07,12,17,10,23.70
2008,07,12,17,11,23.80
2008,07,12,17,12,23.90
2008,07,12,17,13,24.00
2008,07,12,17,14,24.00
2008,07,12,17,15,24.10
2008,07,12,17,16,24.10
2008,07,12,17,17,24.20
2008,07,12,17,18,24.20
2008,07,12,17,19,24.30